リニア彗星

C/2004 G1 ( LINEAR )

English version
Home page
Updated on January 15, 2005

---------------------------------------------------------------------

・ プロフィール

発見日 2004年4月9日
発見光度 18.5等
発見者 Lincoln Laboratory Near-Earth Asteroid Research project

・ 写真集

・ 軌道要素

T 2004 June 4.7914 TT                                   MPC
q   1.202466             (2000.0)            P               Q
                   Peri.  110.4895      -0.0577618      +0.7306795
                   Node   228.3763      +0.1376218      +0.6807328
e   1.0            Incl.  114.4898      +0.9887992      -0.0520614
>From 42 observations 2004 Apr. 9-May 5.

・ 星図

・ 光度変化

        m1 = 13.5 + 5 logΔ + 18.0 log r

---------------------------------------------------------------------

軌道要素はM.P.E.C. 2004-J38に掲載されたものです。
星図は StellaNavigator Ver.2.0 for Windows (アストロアーツ 編著 / アスキー出版局刊) で作成したものです。
光度グラフはComet for Windowsで作成したものです。

---------------------------------------------------------------------

Copyright(C) Seiichi Yoshida (comet@aerith.net). All rights reserved.